Location: Unspecified
(0.0000°N, 0.0000°E)
Time: 17:18:12
(UTC+01:00)

Daily predictions for brighter satellites

Satellite Brightness Start Highest point End
(mag) Time Altitude Azimuth Time Altitude Azimuth Time Altitude Azimuth
Cosmos 1624 Rocket 4.2 19:27:39 10° NNW 19:32:49 80° WSW 19:38:00 10° S
Meteosat 1 Rocket2 3.4 19:29:50 10° WSW 19:34:06 86° NNW 19:40:20 10° ENE
Cosmos 2263 Rocket 2.2 19:29:54 10° S 19:35:23 61° ESE 19:40:50 10° NNE
H-2A R/B 3.9 19:33:05 10° SE 19:36:12 23° E 19:39:19 10° NNE
Centaur AC-116 4.2 19:34:20 10° WSW 19:37:55 76° NNW 19:54:10 10° ENE
Cosmos 1674 Rocket 3.5 19:35:30 10° N 19:39:46 69° E 19:44:04 10° S
Cosmos 494 Rocket 4.4 19:40:04 10° SSW 19:45:18 70° WNW 19:50:29 10° N
Shenzhou-11 Module 4.2 19:45:03 10° NE 19:45:34 10° NE 19:46:05 10° NE
NOAA 12 4.1 19:40:21 10° SSE 19:45:35 66° ENE 19:50:49 10° N
ARIANE 5 R/B 2.3 19:45:28 10° WNW 19:47:11 31° N 19:49:34 11° ENE
ARIANE 5 DEB (SYLDA) 3.1 19:54:24 10° W 19:58:42 64° S 20:02:08 15° ESE
Cosmos 1844 Rocket 4.3 19:56:29 10° SE 19:59:01 13° ESE 19:59:32 13° E
EUTELSAT W3B 2.1 19:57:48 10° W 20:01:20 88° NNW 20:02:17 26° E
ARIANE 5 DEB (SYLDA) 3.0 19:53:24 10° W 20:01:49 60° S 20:04:01 18° ESE
Lacrosse 5 1.8 19:58:56 10° NNW 20:03:55 64° ENE 20:08:55 10° SE
ARIANE 5 DEB (SYLDA) 2.0 20:00:02 10° W 20:04:19 84° N 20:05:28 26° E
Meteor 1-5 Rocket 4.4 19:59:28 10° S 20:04:58 52° E 20:10:38 10° NNE
Cosmos 2333 Rocket 4.4 20:00:30 10° NW 20:05:16 28° WSW 20:10:03 10° SSW
HJ-1C 4.5 20:03:19 10° SE 20:06:07 24° E 20:08:55 10° NNE
Cosmos 1300 Rocket 4.3 20:05:12 10° SSE 20:09:09 31° E 20:12:18 14° NE
Abrixas rocket 3.6 20:06:31 10° WNW 20:09:29 38° SW 20:12:27 10° SSE
GPS 2-04 Rocket1 2.6 20:08:43 10° WNW 20:12:25 70° SW 20:15:11 16° SE
Meteor 1-4 Rocket 4.0 20:10:07 10° SSW 20:13:22 37° W 20:16:35 10° NNW
Cosmos 1513 Rocket 4.4 20:08:09 10° N 20:14:20 85° E 20:20:27 10° S
Thor Agena Rocket 4.2 20:10:42 10° N 20:15:36 55° WNW 20:20:32 10° SSW
Cosmos 1975 Rocket 3.3 20:12:30 10° NNE 20:16:46 45° E 20:21:03 10° SSE
CRYOSAT 2 4.4 20:13:16 10° N 20:18:06 82° W 20:22:57 10° S
Cosmos 389 Rocket 2.7 20:15:39 10° S 20:19:00 44° E 20:20:03 33° NE
Meteor 1-11 Rocket 4.1 20:13:36 10° SSW 20:19:05 67° W 20:24:35 10° N
Okean 1 3.2 20:19:19 10° N 20:23:16 85° W 20:27:14 10° S
Meteor 1-18 Rocket 4.4 20:17:49 10° N 20:23:19 72° W 20:28:54 10° S
ASTRO E2 3.5 20:21:03 10° SSW 20:24:41 33° SSE 20:25:19 31° SE
FREGAT/IRIS 3.2 20:28:13 10° S 20:31:07 56° W 20:33:59 10° NNW
Cosmos 1536 3.4 20:28:43 10° SSW 20:32:40 58° W 20:36:37 10° N
Meteor 1-19 Rocket 4.2 20:28:39 10° N 20:34:04 54° E 20:39:37 10° SSE
FengYun 1-2 T 4.3 20:28:35 10° S 20:34:09 79° WSW 20:39:39 10° NNW
HETE-2 4.4 20:33:06 10° W 20:37:13 73° N 20:37:39 65° NE
GOES 2 Rocket 4.3 20:28:28 10° WNW 20:37:14 82° SSW 20:41:16 27° SE
Fermi 3.9 20:34:48 10° WSW 20:38:49 63° NNW 20:39:22 55° NNE
Cosmos 44 Rocket 3.3 20:39:53 10° NNW 20:44:58 63° ENE 20:45:52 53° ESE
SL-24 DEB 4.2 20:46:11 61° ESE 20:46:11 61° ESE 20:50:27 10° S
OAO 3 Rocket 3.2 20:45:34 10° SW 20:49:58 60° SSE 20:49:58 60° SSE
Cosmos 1271 Rocket 4.4 20:55:31 10° S 20:57:22 26° S 20:57:22 26° S
ERS-2 4.4 20:59:51 10° SSW 21:02:55 25° WSW 21:05:59 10° NW
Cosmos 44 4.2 20:58:23 10° NW 21:03:35 54° WSW 21:08:50 10° S
ARIANE 5 R/B 3.3 20:42:20 10° W 21:08:38 63° SSW 21:09:39 55° SSE
SL-16 R/B 3.6 21:04:46 10° NW 21:09:55 37° WSW 21:15:06 10° S
Envisat 3.4 21:10:32 10° S 21:15:32 61° WSW 21:20:32 10° NNW
ATLAS 2A CENTAUR R/B 3.2 21:21:02 10° WNW 21:26:14 38° WNW 21:26:14 38° WNW
Cosmos 1844 Rocket 4.1 21:37:29 10° SW 21:41:18 34° WSW 21:41:18 34° WSW
BLOCK DM-SL R/B 4.4 21:32:39 10° W 21:53:05 61° W 21:53:05 61° W
ARIANE 5 DEB (SYLDA) 4.0 21:43:52 10° W 21:53:38 55° W 21:53:38 55° W
CZ-3C R/B 4.4 21:48:02 10° NNW 22:38:17 - E 21:50:42 22° N
